Flag for Germany Weather past 2 weeks in Siegburg, North Rhine-Westphalia, Germany

Now
55 °F

Overcast.


Feels Like: 54 °F
Forecast: 44 / 67 °F
Wind: 5 mph from West

Location: Bonn-Hangelar

Current Time: Aug 20, 2014 at 8:37:45 PM

Latest Report: Aug 20, 2014 at 8:00 PM


Visibility: 31 mi

Pressure: 30.02 "Hg

Humidity: 80%

Dew point: 49 °F

Location of SiegburgLocation

Historic Weather in Siegburg — Graph

°F

Siegburg temperature yesterday

Maximum temperature yesterday: 59 °F (at 4:00 PM)
Minimum temperature yesterday: 49 °F (at 11:00 PM)
Average temperature yesterday: 53 °F

Past Weeks' High & Low Weather Summary

 TemperatureHumidityPressure
High76 °F (Aug 8, 2:00 PM)98% (Aug 9, 12:00 AM)30.13 "Hg (Aug 9, 12:00 AM)
Low47 °F (Aug 20, 6:00 AM)44% (Aug 6, 3:00 PM)29.57 "Hg (Aug 10, 6:00 PM)
Average60 °F80%29.88 "Hg
* Reported Aug 5 7:00 PM — Aug 20 7:00 PM, Siegburg, Weather by CustomWeather, © 2014

Note: Actual official high and low records may vary slightly from our data, if they occured in-between our weather recording intervals... More about our weather records

Advertising

Siegburg weather history for previous 24 hours

 ConditionsComfort  
Time TempWeatherWind HumidityBarometerVisibility
7:00 PM
Aug 20
55 °FOvercast.5 mph77%30.01 "Hg31 mi
6:00 PM56 °FSprinkles. Overcast.6 mph71%30.01 "Hg31 mi
5:00 PM60 °FOvercast.3 mph66%30.00 "Hg31 mi
4:00 PM61 °FOvercast.5 mph57%30.00 "Hg31 mi
3:00 PM60 °FPartly sunny.3 mph63%30.01 "Hg31 mi
2:00 PM59 °FPartly sunny.3 mph61%30.01 "Hg31 mi
1:00 PM59 °FScattered clouds.5 mph60%30.02 "Hg31 mi
12:00 PM60 °FScattered clouds.5 mph67%30.02 "Hg28 mi
11:00 AM57 °FPassing clouds.5 mph68%30.03 "Hg28 mi
10:00 AM55 °FPassing clouds.5 mph77%30.03 "Hg25 mi
9:00 AM51 °FPassing clouds.5 mph81%30.03 "Hg25 mi
8:00 AM49 °FPassing clouds.5 mph86%30.03 "Hg25 mi
7:00 AM47 °FPassing clouds.5 mph89%30.03 "Hg31 mi
6:00 AM47 °FClear.6 mph89%30.02 "Hg37 mi
5:00 AM47 °FClear.6 mph88%30.02 "Hg13 mi
4:00 AM47 °FClear.5 mph90%30.01 "Hg11 mi
3:00 AM47 °FClear.5 mph90%30.01 "Hg13 mi
2:00 AM48 °FClear.5 mph89%30.01 "Hg12 mi
1:00 AM48 °FClear.3 mph90%30.01 "Hg14 mi
12:00 AM49 °FOvercast.2 mph86%30.01 "Hg19 mi
11:00 PM
Aug 19
49 °FClear.2 mph83%30.00 "Hg28 mi
10:00 PM49 °FClear.3 mph85%29.98 "Hg16 mi
9:00 PM52 °FPassing clouds.3 mph83%29.95 "Hg25 mi
8:00 PM54 °FScattered clouds.5 mph78%29.93 "Hg28 mi
Weather by CustomWeather, © 2014

See weather overviewHow to use our weather pages